Temp
-8 -8 -8 -8 -8 -8 -9 -8 -8 -7 -7 -6 -6 -6 -5 -5 -5 -5 -5 -5 -5 -5 -5 -6 -6 -6 -6 -6 -6 -5 -5 -5 -5 -6 -6 -6 -6 -6 -6 -6 -6 -6 -6 -6 -6 -6 -6 -6 -6
-8 -8 -9 -9 -8 -9 -9 -8 -8 -7 -7 -6 -6 -6 -6 -5 -5 -5 -4 -4 -6 -6 -6 -6 -6 -6 -6 -6 -6 -6 -6 -6 -6 -6 -6 -6 -6 -7 -7 -7 -7 -6 -6 -6 -6 -7 -7 -7 -6
-8 -9 -9 -9 -8 -8 -9 -8 -8 -7 -7 -7 -7 -6 -6 -6 -6 -5 -5 -4 -7 -6 -6 -6 -6 -6 -6 -6 -6 -6 -6 -6 -6 -6 -7 -7 -7 -7 -7 -7 -7 -7 -6 -6 -7 -7 -6 -6 -6
-8 -9 -9 -9 -8 -8 -8 -8 -8 -8 -7 -7 -7 -7 -6 -6 -6 -6 -6 -6 -7 -6 -7 -6 -6 -6 -6 -7 -7 -6 -6 -6 -7 -7 -7 -7 -7 -7 -7 -7 -6 -7 -7 -6 -6 -7 -7 -6 -6
-8 -8 -9 -9 -9 -8 -8 -8 -8 -8 -7 -7 -7 -7 -7 -7 -7 -6 -6 -7 -6 -6 -7 -6 -7 -6 -7 -7 -6 -7 -7 -7 -7 -7 -7 -7 -7 -7 -7 -6 -6 -6 -7 -7 -7 -7 -7 -7 -6
-9 -9 -9 -9 -9 -8 -8 -9 -8 -8 -7 -7 -7 -7 -7 -7 -7 -7 -7 -7 -7 -7 -7 -7 -7 -7 -8 -7 -7 -7 -7 -7 -7 -7 -7 -7 -7 -6 -6 -6 -6 -7 -7 -7 -6 -6 -6 -6 -6
-8 -9 -9 -9 -8 -8 -8 -8 -9 -8 -8 -7 -7 -7 -7 -7 -7 -7 -7 -7 -7 -7 -8 -7 -8 -8 -7 -7 -7 -7 -7 -7 -7 -7 -7 -7 -6 -6 -6 -6 -6 -7 -7 -7 -7 -7 -6 -6 -6
-8 -8 -8 -9 -8 -8 -8 -8 -8 -8 -8 -7 -8 -8 -7 -8 -7 -7 -7 -7 -7 -8 -8 -8 -8 -8 -8 -8 -8 -8 -8 -8 -8 -7 -7 -7 -7 -7 -7 -7 -7 -7 -7 -7 -7 -7 -7 -7 -7
-8 -8 -8 -8 -8 -8 -8 -8 -8 -8 -8 -8 -8 -8 -8 -8 -8 -8 -7 -7 -8 -8 -9 -8 -8 -8 -8 -9 -9 -9 -9 -9 -8 -8 -7 -7 -7 -7 -7 -7 -7 -7 -7 -7 -7 -7 -7 -7 -7
-8 -8 -8 -8 -8 -8 -8 -8 -8 -8 -8 -8 -8 -8 -8 -8 -8 -8 -7 -8 -7 -9 -9 -9 -8 -8 -9 -9 -9 -9 -9 -9 -8 -8 -8 -7 -7 -7 -7 -7 -7 -7 -7 -7 -7 -7 -7 -8 -8
-8 -8 -8 -7 -7 -8 -8 -8 -8 -8 -8 -8 -8 -8 -8 -8 -8 -8 -8 -8 -8 -8 -9 -9 -8 -8 -9 -9 -9 -10 -9 -9 -8 -8 -8 -8 -8 -8 -7 -8 -7 -7 -7 -7 -7 -7 -8 -8 -8
-8 -8 -8 -8 -7 -7 -8 -8 -8 -8 -8 -8 -8 -8 -8 -9 -9 -9 -9 -8 -8 -8 -8 -8 -9 -9 -9 -9 -9 -9 -9 -9 -8 -8 -7 -8 -8 -8 -8 -7 -7 -7 -7 -7 -7 -7 -7 -7 -7
-8 -8 -8 -8 -8 -8 -8 -8 -8 -8 -8 -8 -8 -8 -8 -9 -9 -9 -9 -9 -8 -8 -8 -9 -9 -9 -9 -9 -9 -9 -9 -9 -8 -8 -8 -8 -8 -8 -7 -7 -7 -7 -7 -7 -7 -7 -7 -7 -7
-8 -8 -8 -8 -8 -8 -8 -8 -8 -8 -8 -8 -8 -8 -8 -8 -9 -9 -9 -9 -9 -8 -8 -9 -9 -8 -9 -8 -9 -9 -9 -9 -9 -8 -8 -8 -8 -8 -8 -8 -7 -7 -7 -7 -7 -7 -7 -7 -8
-8 -8 -8 -8 -8 -8 -8 -8 -8 -8 -8 -8 -8 -8 -8 -8 -8 -9 -9 -9 -9 -9 -8 -8 -8 -8 -8 -9 -9 -9 -9 -8 -9 -8 -8 -8 -8 -8 -8 -8 -7 -7 -8 -7 -8 -7 -7 -8 -8
-8 -8 -8 -9 -8 -8 -8 -8 -8 -8 -7 -8 -8 -7 -8 -8 -8 -8 -9 -9 -9 -9 -8 -8 -8 -8 -8 -8 -9 -9 -9 -9 -9 -8 -8 -8 -8 -8 -8 -8 -7 -7 -8 -8 -8 -8 -8 -8 -8
-8 -8 -9 -9 -9 -9 -9 -9 -9 -8 -8 -8 -8 -8 -8 -7 -7 -7 -8 -8 -8 -8 -8 -8 -8 -8 -8 -8 -8 -8 -8 -9 -9 -8 -8 -8 -8 -8 -8 -8 -7 -8 -8 -7 -8 -8 -8 -8 -8
-8 -8 -9 -9 -9 -9 -9 -9 -9 -9 -9 -8 -8 -9 -8 -8 -8 -8 -8 -8 -9 -9 -8 -8 -9 -8 -9 -8 -8 -9 -9 -8 -9 -9 -8 -8 -8 -8 -8 -8 -8 -8 -8 -8 -8 -8 -8 -8 -8
-9 -9 -9 -9 -9 -9 -9 -10 -9 -9 -9 -9 -9 -9 -9 -9 -9 -9 -9 -9 -9 -9 -9 -9 -9 -9 -9 -9 -9 -9 -9 -9 -8 -8 -8 -8 -8 -8 -8 -8 -8 -8 -8 -8 -8 -8 -8 -8 -8
-9 -9 -10 -10 -10 -10 -10 -10 -9 -9 -9 -10 -10 -9 -9 -9 -9 -10 -9 -9 -9 -9 -10 -10 -10 -10 -9 -9 -9 -9 -9 -9 -9 -9 -9 -8 -8 -8 -8 -8 -8 -8 -8 -8 -8 -8 -9 -9 -9
-10 -10 -10 -11 -10 -10 -10 -10 -10 -10 -10 -10 -10 -10 -10 -10 -10 -10 -10 -10 -10 -10 -11 -11 -10 -10 -11 -11 -10 -10 -9 -9 -9 -9 -9 -9 -9 -9 -9 -9 -8 -9 -8 -8 -8 -8 -9 -9 -9
-11 -10 -11 -11 -11 -11 -11 -12 -11 -10 -10 -10 -11 -11 -11 -11 -11 -11 -11 -11 -11 -11 -12 -12 -12 -12 -12 -12 -11 -11 -11 -10 -10 -9 -9 -9 -9 -9 -9 -9 -9 -9 -9 -9 -9 -9 -9 -9 -9
-11 -12 -11 -11 -12 -13 -12 -12 -13 -12 -11 -11 -11 -11 -12 -12 -12 -12 -11 -11 -12 -12 -12 -12 -12 -12 -12 -12 -12 -12 -12 -12 -11 -10 -10 -9 -9 -9 -9 -9 -9 -9 -9 -9 -9 -9 -9 -9 -9
-12 -12 -12 -13 -13 -14 -13 -14 -13 -13 -13 -12 -12 -12 -12 -12 -12 -12 -12 -12 -12 -12 -12 -12 -12 -12 -12 -12 -12 -12 -13 -13 -12 -11 -10 -10 -9 -9 -9 -9 -9 -9 -9 -9 -9 -9 -9 -9 -9
-13 -13 -14 -15 -14 -14 -13 -13 -13 -14 -14 -13 -13 -13 -13 -13 -13 -13 -13 -12 -12 -12 -12 -11 -11 -11 -11 -11 -12 -12 -12 -13 -13 -13 -12 -11 -10 -10 -10 -10 -10 -10 -10 -10 -10 -10 -10 -10 -10
-15 -14 -15 -14 -13 -13 -13 -14 -14 -14 -14 -14 -13 -13 -13 -13 -14 -14 -13 -13 -13 -12 -12 -12 -12 -11 -11 -12 -11 -12 -12 -12 -14 -14 -13 -12 -12 -11 -11 -10 -10 -10 -10 -10 -10 -10 -10 -10 -10
-14 -15 -15 -15 -14 -13 -13 -13 -14 -14 -14 -14 -14 -14 -14 -14 -14 -14 -14 -14 -14 -13 -13 -13 -12 -12 -12 -11 -11 -12 -12 -12 -13 -14 -13 -13 -13 -12 -12 -12 -11 -11 -11 -11 -10 -10 -10 -10 -10
-15 -15 -15 -16 -15 -14 -14 -14 -15 -14 -14 -14 -15 -15 -15 -15 -14 -14 -14 -14 -14 -14 -14 -14 -14 -13 -13 -12 -12 -13 -12 -13 -14 -14 -14 -14 -13 -13 -12 -13 -13 -12 -11 -11 -11 -11 -11 -11 -11
-15 -16 -15 -16 -14 -15 -14 -15 -14 -14 -15 -15 -15 -15 -15 -15 -15 -15 -14 -14 -14 -14 -14 -14 -14 -14 -14 -13 -13 -13 -13 -13 -14 -13 -13 -14 -14 -13 -13 -13 -13 -13 -12 -12 -11 -11 -10 -11 -11
-15 -15 -15 -15 -15 -15 -15 -15 -15 -15 -15 -15 -15 -15 -15 -15 -15 -15 -14 -14 -14 -14 -14 -14 -14 -14 -13 -13 -13 -14 -13 -13 -13 -13 -14 -14 -14 -14 -14 -13 -13 -13 -13 -13 -12 -12 -12 -12 -11
Height
5912 5914 5915 5917 5922 5923 5924 5925 5926 5928 5929 5930 5930 5930 5929 5928 5927 5928 5925 5924 5925 5927 5929 5931 5932 5934 5936 5936 5937 5937 5936 5936 5935 5936 5936 5936 5936 5936 5936 5935 5934 5933 5932 5931 5930 5929 5928 5926 5925
5911 5913 5914 5916 5920 5925 5925 5924 5925 5927 5928 5930 5930 5929 5928 5927 5926 5924 5922 5919 5920 5923 5927 5929 5932 5933 5934 5934 5936 5935 5935 5935 5934 5935 5935 5936 5936 5936 5936 5935 5934 5932 5931 5930 5929 5928 5926 5925 5924
5910 5911 5913 5914 5918 5926 5926 5922 5924 5925 5927 5929 5929 5928 5927 5927 5925 5922 5919 5915 5919 5923 5927 5927 5929 5931 5932 5933 5934 5935 5934 5934 5934 5934 5934 5934 5935 5935 5934 5934 5933 5931 5930 5928 5927 5926 5925 5924 5922
5908 5910 5912 5913 5916 5919 5919 5920 5921 5924 5926 5927 5928 5928 5926 5926 5925 5923 5920 5918 5919 5923 5926 5927 5930 5931 5932 5932 5933 5933 5933 5932 5933 5933 5933 5933 5933 5933 5932 5931 5931 5929 5927 5926 5925 5924 5922 5921 5920
5906 5908 5910 5912 5913 5916 5917 5918 5920 5922 5925 5925 5926 5926 5926 5925 5925 5924 5922 5922 5923 5924 5926 5928 5929 5929 5930 5931 5931 5931 5931 5931 5931 5931 5931 5931 5931 5931 5930 5929 5929 5927 5926 5924 5922 5921 5920 5919 5917
5904 5906 5909 5910 5911 5913 5915 5916 5918 5921 5922 5922 5923 5924 5925 5924 5923 5924 5923 5923 5924 5925 5925 5926 5927 5928 5929 5929 5929 5930 5930 5930 5930 5929 5929 5928 5928 5928 5928 5927 5926 5924 5923 5922 5921 5919 5919 5917 5916
5901 5904 5905 5907 5909 5910 5913 5915 5916 5918 5920 5920 5921 5922 5922 5922 5922 5921 5922 5922 5922 5924 5925 5926 5926 5926 5927 5927 5927 5928 5927 5927 5927 5927 5926 5926 5925 5925 5925 5925 5924 5922 5921 5920 5918 5917 5916 5915 5914
5898 5900 5901 5905 5906 5906 5910 5912 5914 5915 5917 5919 5918 5919 5919 5920 5920 5919 5918 5919 5919 5920 5922 5922 5923 5924 5924 5925 5925 5925 5925 5924 5924 5924 5924 5922 5922 5922 5922 5922 5922 5920 5919 5917 5915 5914 5913 5912 5910
5894 5897 5898 5900 5902 5901 5906 5908 5910 5913 5914 5915 5915 5916 5917 5916 5916 5915 5914 5914 5915 5916 5918 5919 5919 5919 5920 5921 5922 5922 5921 5921 5921 5920 5920 5919 5918 5918 5918 5917 5917 5918 5916 5915 5912 5911 5909 5907 5906
5892 5893 5894 5895 5897 5899 5902 5905 5907 5910 5911 5912 5912 5913 5914 5912 5912 5910 5910 5910 5911 5912 5913 5914 5915 5915 5915 5918 5918 5918 5918 5916 5916 5916 5916 5916 5915 5915 5915 5914 5913 5914 5913 5913 5909 5908 5906 5903 5902
5889 5889 5890 5891 5894 5895 5898 5901 5903 5905 5907 5908 5909 5909 5910 5909 5908 5907 5907 5907 5908 5908 5909 5910 5911 5908 5912 5913 5914 5914 5914 5913 5912 5912 5912 5913 5913 5912 5911 5911 5910 5910 5911 5910 5906 5905 5903 5901 5899
5885 5885 5886 5887 5890 5892 5894 5896 5899 5901 5902 5903 5905 5905 5906 5905 5904 5904 5904 5904 5905 5905 5905 5906 5907 5908 5908 5909 5909 5909 5909 5909 5909 5909 5909 5909 5909 5909 5908 5908 5907 5908 5908 5906 5904 5904 5902 5900 5896
5882 5882 5883 5884 5885 5887 5889 5892 5893 5896 5897 5898 5899 5900 5900 5900 5900 5901 5901 5902 5902 5902 5902 5902 5903 5904 5904 5904 5904 5905 5905 5905 5905 5905 5905 5905 5906 5906 5905 5905 5905 5906 5904 5903 5902 5901 5900 5899 5895
5880 5879 5878 5879 5880 5881 5884 5886 5888 5890 5891 5892 5892 5894 5895 5894 5896 5897 5898 5898 5898 5899 5899 5899 5899 5899 5900 5901 5901 5900 5900 5901 5901 5901 5901 5901 5901 5902 5902 5902 5903 5901 5901 5900 5899 5898 5898 5896 5894
5877 5877 5876 5875 5876 5876 5879 5881 5883 5883 5884 5886 5888 5889 5890 5890 5891 5893 5894 5894 5894 5894 5895 5894 5895 5896 5896 5896 5896 5896 5896 5896 5896 5896 5896 5896 5896 5897 5898 5899 5899 5898 5897 5897 5895 5895 5894 5893 5891
5871 5872 5871 5869 5870 5871 5874 5876 5875 5877 5879 5881 5883 5884 5884 5885 5886 5885 5887 5888 5889 5889 5888 5888 5889 5889 5890 5890 5890 5890 5891 5891 5891 5892 5892 5892 5893 5894 5894 5894 5895 5894 5894 5893 5891 5890 5890 5888 5887
5865 5866 5867 5864 5866 5866 5868 5870 5868 5870 5872 5874 5876 5878 5879 5879 5880 5880 5881 5882 5883 5884 5883 5883 5883 5883 5883 5883 5884 5885 5885 5886 5886 5887 5887 5887 5888 5889 5889 5889 5890 5889 5889 5889 5887 5886 5885 5884 5883
5857 5859 5859 5860 5860 5861 5861 5863 5860 5863 5864 5866 5869 5870 5871 5872 5873 5873 5873 5874 5875 5877 5877 5877 5877 5877 5877 5878 5878 5878 5879 5880 5880 5880 5881 5882 5883 5883 5883 5884 5884 5884 5885 5884 5883 5882 5881 5880 5879
5851 5851 5852 5853 5852 5854 5854 5855 5852 5856 5857 5858 5861 5863 5863 5864 5864 5865 5866 5866 5867 5868 5869 5869 5870 5870 5871 5871 5872 5873 5873 5873 5874 5875 5876 5877 5877 5877 5877 5878 5878 5879 5879 5879 5878 5878 5876 5876 5875
5843 5843 5844 5845 5844 5846 5845 5846 5846 5848 5850 5849 5851 5853 5855 5856 5857 5858 5858 5859 5859 5860 5861 5862 5863 5863 5864 5864 5865 5866 5868 5868 5868 5868 5869 5870 5871 5871 5872 5872 5873 5873 5873 5873 5874 5873 5872 5871 5871
5834 5835 5836 5838 5836 5838 5838 5836 5838 5839 5841 5843 5842 5844 5846 5848 5849 5851 5852 5852 5853 5853 5853 5854 5855 5855 5856 5857 5857 5858 5859 5861 5861 5861 5862 5863 5864 5865 5865 5866 5866 5867 5867 5868 5868 5867 5867 5866 5865
5824 5825 5825 5827 5829 5830 5831 5835 5826 5830 5832 5834 5835 5836 5837 5839 5840 5841 5843 5845 5845 5845 5846 5847 5848 5849 5850 5850 5850 5851 5852 5852 5853 5853 5853 5855 5856 5857 5858 5859 5860 5860 5860 5861 5862 5862 5861 5861 5860
5815 5812 5816 5818 5821 5825 5821 5825 5829 5819 5822 5824 5825 5828 5829 5829 5831 5832 5833 5835 5837 5838 5839 5840 5841 5842 5843 5844 5844 5844 5844 5845 5844 5845 5846 5845 5846 5848 5850 5851 5852 5853 5853 5854 5855 5855 5855 5854 5855
5804 5804 5807 5809 5812 5812 5815 5815 5823 5813 5809 5815 5816 5818 5819 5820 5821 5822 5823 5825 5827 5828 5830 5831 5833 5833 5834 5835 5836 5835 5837 5837 5836 5836 5836 5836 5837 5838 5839 5841 5843 5844 5845 5846 5847 5847 5848 5848 5848
5796 5798 5801 5803 5803 5803 5810 5810 5814 5801 5799 5804 5807 5809 5810 5811 5812 5812 5813 5814 5816 5818 5820 5821 5822 5823 5824 5824 5826 5826 5827 5827 5828 5827 5827 5827 5828 5829 5830 5832 5833 5835 5836 5838 5839 5839 5840 5841 5841
5789 5789 5793 5796 5799 5801 5794 5795 5795 5792 5794 5795 5797 5798 5800 5802 5802 5803 5804 5803 5805 5806 5808 5809 5811 5812 5813 5814 5815 5816 5817 5818 5819 5819 5819 5818 5819 5821 5822 5823 5824 5825 5827 5829 5830 5831 5833 5834 5835
5781 5779 5784 5784 5786 5783 5784 5781 5778 5781 5785 5786 5787 5787 5788 5788 5789 5791 5793 5793 5793 5795 5797 5797 5799 5800 5801 5803 5804 5806 5807 5808 5809 5810 5809 5809 5811 5811 5813 5814 5814 5815 5818 5820 5821 5823 5825 5826 5827
5768 5770 5771 5771 5773 5774 5775 5779 5772 5770 5773 5774 5774 5775 5776 5777 5778 5779 5780 5782 5783 5784 5784 5786 5787 5788 5789 5790 5792 5794 5795 5797 5799 5800 5801 5800 5800 5801 5803 5806 5806 5807 5808 5810 5812 5813 5815 5816 5817
5753 5758 5758 5760 5759 5760 5766 5766 5762 5759 5761 5763 5764 5765 5765 5766 5766 5767 5768 5770 5771 5772 5772 5774 5774 5775 5777 5779 5780 5783 5784 5786 5788 5789 5789 5788 5788 5791 5792 5796 5797 5798 5800 5801 5803 5804 5805 5807 5808
5739 5741 5742 5745 5751 5751 5750 5753 5748 5747 5749 5750 5750 5751 5752 5753 5754 5753 5754 5756 5757 5759 5759 5759 5761 5762 5763 5766 5768 5769 5771 5772 5773 5776 5776 5777 5778 5779 5780 5783 5787 5789 5790 5791 5793 5795 5796 5797 5797
Wind_Speed
16 15 12 13 13 12 9 14 13 11 7 2 4 5 6 7 9 4 5 13 22 17 17 16 16 14 11 9 7 5 4 5 5 3 4 3 3 5 7 8 9 9 10 10 9 9 9 10 10
16 16 13 13 14 8 10 14 14 12 9 6 5 5 5 7 11 9 7 11 25 23 20 19 16 14 13 10 6 4 3 2 2 0 2 2 3 4 7 9 11 11 10 10 12 12 11 10 11
16 17 16 15 16 11 11 15 14 11 9 6 4 3 7 6 9 6 2 8 22 22 19 19 17 14 12 9 8 6 6 5 4 3 3 2 3 4 5 7 9 11 13 11 11 12 12 13 12
15 17 18 16 15 20 21 18 15 13 10 8 7 5 8 5 4 7 13 7 23 20 17 13 12 11 12 11 9 8 8 8 7 6 6 5 4 6 8 9 11 13 14 15 14 13 13 14 14
17 16 18 19 19 19 19 19 19 15 11 11 7 5 2 3 4 7 7 9 15 15 15 15 14 14 11 11 12 12 11 10 10 8 8 8 9 11 12 13 15 16 17 18 18 16 16 16 16
21 18 18 19 22 19 18 17 16 15 15 12 8 7 6 7 7 7 3 7 15 15 17 18 16 13 11 13 13 13 11 11 11 12 13 14 15 15 16 17 17 17 17 18 18 19 18 19 19
18 22 23 23 22 21 20 16 20 20 16 16 14 12 12 10 11 12 12 10 14 18 17 17 15 12 14 14 14 14 13 16 17 18 17 17 17 16 16 18 18 18 19 20 21 22 22 22 22
17 20 25 25 24 25 20 21 19 17 17 15 16 17 15 15 15 17 17 13 17 20 20 20 17 14 15 17 16 17 20 22 20 20 18 18 18 18 18 19 20 20 21 21 22 23 24 24 24
17 19 22 25 27 30 23 21 21 19 18 18 19 18 17 19 20 21 19 17 20 23 22 23 21 23 20 18 18 20 21 22 21 22 19 18 20 20 21 21 19 20 21 21 21 27 27 25 25
17 18 24 23 23 29 27 25 22 20 19 20 21 20 19 22 24 16 15 17 22 26 26 28 28 27 17 21 24 22 23 23 24 23 22 24 21 21 25 19 19 20 17 20 22 21 21 22 23
17 20 21 23 21 21 26 28 25 23 23 25 25 23 24 24 17 15 16 19 24 25 27 26 29 22 22 27 25 23 25 26 28 25 23 23 23 22 18 21 21 18 21 18 16 15 18 22 24
16 18 21 22 21 20 21 22 28 27 29 27 26 25 19 18 17 16 18 22 23 27 28 30 30 26 25 27 27 26 25 28 26 25 24 24 20 19 20 20 18 17 15 13 13 14 16 21 22
15 16 18 19 19 20 20 21 24 26 26 24 22 20 19 20 17 17 19 23 25 28 30 30 29 29 28 28 29 26 26 25 26 26 26 22 20 20 18 18 16 14 11 13 14 15 16 19 21
20 20 20 19 19 20 19 20 20 22 21 20 21 21 20 23 23 20 19 23 26 29 32 34 35 33 33 31 30 27 29 30 30 29 26 23 21 20 18 16 15 13 14 14 17 18 17 19 19
24 24 24 25 25 24 23 22 22 24 22 22 22 21 22 24 23 21 22 25 27 29 32 34 34 34 31 29 32 34 35 34 34 30 26 24 22 21 20 18 17 15 15 17 18 19 18 16 14
25 25 25 30 29 31 29 27 30 30 28 26 26 26 26 25 26 27 25 26 29 30 33 34 34 32 31 30 31 32 31 31 32 31 28 25 24 22 23 21 20 18 18 18 19 20 19 16 18
26 27 26 31 29 31 31 31 37 33 32 32 31 29 30 31 29 29 30 28 28 30 34 35 35 34 33 32 32 32 31 31 32 32 31 29 27 25 25 24 22 21 21 20 20 21 21 19 19
31 26 28 29 31 31 32 32 38 34 35 34 32 31 32 34 33 34 34 31 30 28 32 36 37 37 35 35 34 34 33 33 33 34 34 32 30 27 28 26 25 24 23 22 22 23 23 24 21
32 30 30 28 32 31 31 32 37 33 34 33 32 31 31 31 30 31 32 33 32 30 29 32 36 38 38 37 37 36 35 36 35 36 37 35 33 31 30 30 29 28 27 25 24 25 24 23 22
34 34 31 31 32 31 35 34 34 32 31 32 32 31 30 29 30 31 32 32 31 30 29 29 31 35 38 39 39 39 36 37 36 36 37 36 35 34 33 34 32 31 31 29 27 27 27 25 23
35 35 35 31 33 31 34 37 35 33 31 29 31 31 30 29 30 31 30 30 32 32 31 31 31 33 33 33 35 37 39 36 38 38 38 38 37 37 37 36 35 35 34 33 31 29 28 27 24
35 37 37 35 32 29 32 25 37 35 34 31 31 31 32 33 33 33 33 31 32 32 30 27 25 28 29 29 33 33 34 37 36 39 41 40 39 39 39 38 38 38 37 35 33 32 32 29 26
37 40 36 35 31 26 36 33 28 40 35 35 34 33 34 37 39 38 37 34 33 35 36 35 32 32 32 31 32 34 35 34 36 39 41 44 43 42 41 40 40 40 39 37 35 34 33 30 27
38 39 35 34 32 31 30 31 27 39 45 36 35 36 37 38 38 38 38 38 37 39 41 41 41 39 37 35 34 37 35 35 38 40 42 44 45 45 45 44 42 41 40 38 36 35 32 31 29
37 36 29 28 28 32 25 30 27 40 42 39 35 36 36 35 35 36 38 38 39 40 41 42 43 41 40 41 38 38 39 37 39 40 42 45 45 45 46 45 45 43 41 38 36 35 33 33 31
31 33 31 30 29 26 32 34 40 43 42 40 39 37 37 37 37 37 37 39 40 40 41 41 41 41 41 40 40 39 42 42 40 44 46 48 47 46 46 45 44 41 38 36 36 36 35 34 33
35 42 32 36 36 38 28 32 36 39 42 40 38 40 41 42 42 41 40 39 41 43 43 45 44 44 44 43 40 39 39 44 44 46 48 51 50 47 41 40 43 42 40 39 38 35 34 35 35
40 37 34 35 35 35 32 35 39 42 42 40 41 42 43 44 45 45 43 42 42 42 42 44 45 46 46 45 43 41 41 46 46 49 52 54 52 48 40 39 40 40 40 40 40 38 37 36 37
45 43 44 43 35 35 33 34 40 41 37 39 40 41 42 42 44 45 45 44 44 45 48 48 49 49 47 44 45 45 47 47 51 55 57 57 59 53 47 41 43 44 45 41 37 40 43 43 41
56 53 53 49 47 46 46 39 39 42 44 45 45 44 45 44 44 45 46 48 47 46 47 50 52 54 54 55 51 52 56 56 57 59 59 58 62 59 50 49 43 46 45 42 42 41 42 46 48
Wind_Direction
187 190 195 197 201 209 214 217 221 226 224 232 55 23 0 3 349 338 266 223 214 194 181 173 169 169 171 168 183 185 157 116 104 94 102 79 36 4 1 7 6 4 7 9 7 11 19 12 12
193 195 199 201 198 202 233 220 224 234 244 262 283 327 357 353 342 334 280 251 207 178 176 169 175 177 175 182 199 201 200 188 168 152 5 22 4 345 346 346 346 345 350 352 348 347 350 352 351
195 199 205 208 198 187 218 220 225 237 249 266 278 302 336 331 336 344 19 205 180 171 173 174 177 185 185 191 203 221 226 232 236 238 261 274 305 300 315 319 322 324 325 327 326 327 329 328 329
202 203 208 214 213 215 222 219 227 239 260 272 277 288 326 307 338 27 51 138 167 167 175 178 182 190 212 206 217 230 243 251 250 259 266 274 279 284 291 296 297 303 306 308 312 314 312 311 314
212 209 213 218 231 214 223 227 233 243 248 256 266 279 25 332 308 357 53 143 170 174 177 194 197 211 220 223 219 231 243 256 261 259 263 264 271 283 285 285 291 296 301 304 306 308 310 309 308
214 219 219 224 233 235 224 227 235 248 257 264 259 271 273 307 320 327 336 165 188 195 192 203 203 205 232 237 234 239 249 263 264 265 270 276 279 279 283 285 284 289 294 296 298 299 302 304 307
220 218 225 226 235 240 232 231 242 246 254 267 270 273 274 293 298 299 290 234 202 217 229 225 229 253 244 245 257 267 268 271 273 279 278 277 277 278 279 283 286 290 291 295 298 300 302 303 303
231 226 228 230 235 243 239 238 250 247 250 256 267 273 280 284 287 288 284 272 226 208 224 235 231 248 249 257 258 268 287 285 280 278 276 275 274 276 278 283 285 287 290 293 296 300 298 298 299
235 236 237 237 235 239 237 240 240 253 262 266 268 273 279 283 289 282 271 252 230 211 222 228 232 235 237 253 267 269 287 285 281 274 275 283 279 279 288 293 292 295 294 289 293 300 296 294 294
240 240 241 245 244 240 240 242 246 249 250 258 267 272 281 287 292 287 265 242 229 215 217 233 233 245 243 256 265 267 276 277 276 277 277 277 287 283 288 285 292 293 302 295 299 298 299 299 297
243 241 250 251 253 250 241 243 246 252 258 261 267 277 280 284 273 278 256 240 235 225 220 235 247 256 253 264 258 257 264 270 275 276 280 284 288 291 281 284 303 289 294 300 307 303 304 298 296
244 248 252 257 258 255 246 245 247 252 255 264 271 273 270 265 256 266 254 237 233 231 231 232 238 247 253 251 248 251 261 270 268 274 276 279 286 280 282 286 290 288 291 300 305 303 303 301 300
242 246 251 253 257 257 255 250 249 254 259 264 264 259 256 246 244 248 244 238 232 231 234 235 240 247 255 251 244 249 257 258 266 271 273 277 269 280 279 279 278 278 293 298 303 306 303 299 297
249 250 252 251 249 252 249 247 248 252 250 248 246 245 240 244 236 242 238 237 238 237 238 242 247 253 254 251 247 249 253 258 264 270 271 273 268 274 270 271 269 283 289 295 297 299 298 298 296
256 256 256 258 255 249 247 245 239 244 239 235 240 241 240 244 245 242 241 241 244 245 245 247 249 251 250 247 249 253 255 260 259 265 268 268 269 269 270 269 273 281 284 290 296 298 306 294 287
259 255 254 253 255 258 256 251 251 248 248 244 238 241 244 241 245 245 241 242 241 244 248 248 250 249 247 247 250 253 255 258 260 265 264 263 265 265 266 271 275 281 283 289 293 297 300 295 295
263 259 255 262 259 260 260 257 254 259 257 254 253 249 248 251 248 251 255 252 252 248 248 248 251 251 250 251 252 255 256 255 255 258 260 262 262 262 264 267 270 276 280 285 290 292 295 291 293
269 263 262 260 263 263 263 259 262 263 262 260 258 257 255 253 253 253 255 259 263 260 256 250 248 250 252 252 252 253 253 252 251 253 256 257 258 260 264 266 269 271 273 275 279 283 288 287 290
266 267 264 261 262 262 264 260 262 263 263 262 258 256 257 256 254 256 258 259 257 255 254 255 255 253 252 253 251 251 249 246 246 249 252 253 255 258 262 266 267 270 272 274 279 281 284 286 288
265 266 264 259 260 259 262 261 264 262 263 265 266 262 255 252 248 250 253 257 258 257 256 257 258 257 256 256 256 253 251 249 248 248 252 254 255 257 261 265 267 270 272 273 274 277 281 284 285
265 263 263 259 259 258 257 262 264 263 263 262 264 265 262 258 256 253 254 258 259 259 256 254 252 256 258 260 261 261 258 253 252 252 252 256 257 258 261 263 266 269 270 271 273 275 278 280 283
261 262 256 257 258 261 257 251 268 261 260 258 258 258 261 262 261 260 261 259 255 249 248 254 257 259 261 261 263 265 266 266 263 260 258 258 258 260 262 264 266 267 269 270 270 270 271 273 278
258 257 257 256 254 240 251 252 252 265 261 257 256 256 256 255 257 261 264 262 248 245 247 250 252 253 255 254 256 259 260 263 264 265 266 265 265 264 263 263 265 266 267 268 266 265 267 271 275
261 259 259 257 254 249 243 253 239 264 262 256 255 257 257 257 255 252 252 254 254 248 248 251 253 252 252 252 250 253 253 257 261 264 264 264 264 266 266 266 265 265 265 266 266 266 266 267 268
261 264 257 256 248 251 247 247 237 241 257 256 257 257 254 254 254 253 254 253 252 251 249 250 252 253 252 252 248 251 248 248 254 259 263 265 267 267 266 265 266 266 265 265 264 263 262 261 262
260 262 247 246 248 254 243 240 248 247 248 260 263 262 258 258 258 256 254 255 255 256 255 254 253 253 254 252 252 252 252 245 246 253 261 266 269 272 271 270 267 265 263 261 260 262 263 259 257
254 249 252 241 235 246 252 253 246 255 257 259 261 261 261 259 260 258 256 255 255 256 256 256 255 256 255 253 253 249 249 247 241 248 258 265 268 274 271 266 266 265 263 262 258 258 260 261 259
244 239 244 248 243 244 243 248 261 261 259 257 260 263 265 266 265 261 258 255 251 250 252 253 253 253 253 252 251 250 245 239 240 247 251 257 262 265 263 255 259 259 259 260 261 260 259 260 260
233 234 240 237 234 242 244 252 248 257 268 264 263 263 266 267 266 263 263 258 253 251 250 251 252 250 247 247 250 248 248 238 242 247 249 252 257 262 264 258 258 263 263 267 268 267 263 260 258
237 238 235 241 244 250 241 240 249 261 262 266 267 270 272 270 268 266 262 260 259 256 256 256 256 256 255 249 249 251 241 240 238 244 242 243 253 259 262 262 259 260 260 263 264 264 268 265 259